Theta_e
359 368 364 359 359 355 349 345 315 317 320 310 313 314 312 324 327 325 324 327 324 330 333 334 333 333 330 329 333 335 335 329 328 320 320 337 354 356 358 356 356 355 356 357 359 361 363 365 365 366 365 365 368 369 369 368 368 368 368 367 367 368 367 367 366 365 365 366 366 365 364 364 365 365 365 364 364 363 364 366 365 364 364 365 364 365 367 367 368 368 368 368 368 367 367 367 367
362 367 361 357 351 347 340 341 320 315 316 311 312 315 318 324 325 322 323 325 326 329 335 335 336 339 339 339 339 337 334 337 339 337 343 346 352 357 359 358 357 354 355 358 358 361 362 365 362 360 364 367 369 370 369 368 368 367 367 368 368 368 368 367 366 366 365 365 365 365 364 364 364 365 365 365 365 365 365 364 364 364 365 365 365 365 366 367 367 368 367 367 368 367 367 366 366
367 363 357 356 346 345 343 335 313 312 310 307 312 316 322 321 321 325 326 328 332 335 337 336 338 338 336 337 333 332 326 341 340 342 342 349 345 351 359 359 358 357 357 357 358 361 362 361 362 365 367 367 368 370 369 368 368 368 368 368 368 369 368 367 366 365 365 365 365 365 364 364 364 364 364 364 366 366 366 366 365 365 365 365 365 366 366 367 367 367 368 368 367 366 365 365 365
368 363 354 349 340 343 332 323 317 313 309 310 312 318 321 321 323 326 332 334 336 336 335 333 332 339 335 331 334 338 334 335 342 342 341 345 350 357 358 360 360 357 357 357 357 359 362 361 360 366 368 367 368 369 369 368 367 367 368 369 369 369 368 366 365 365 365 366 366 365 365 364 364 364 364 364 365 365 365 366 366 366 365 365 366 366 367 367 367 367 367 366 365 365 365 365 364
363 361 354 345 341 335 329 319 316 316 309 312 310 318 322 324 327 331 333 335 335 335 335 336 335 340 342 339 339 333 333 341 341 345 343 350 356 357 360 361 360 357 355 356 356 358 361 360 360 367 369 369 368 369 368 367 367 367 367 369 369 369 368 366 365 365 366 366 366 366 365 364 364 364 364 365 364 364 364 365 365 364 365 365 366 366 366 366 366 365 365 365 364 364 365 364 364
358 356 353 347 339 340 326 316 314 313 316 319 316 319 325 329 330 331 330 332 334 336 336 334 332 332 334 337 341 335 340 332 342 344 347 350 354 360 357 361 359 354 352 356 358 361 362 360 363 367 368 367 368 368 368 368 368 367 367 367 366 367 367 366 366 366 366 366 366 365 364 364 363 363 364 364 364 364 363 363 363 363 363 363 364 365 365 365 365 365 364 362 363 364 364 364 365
346 346 344 344 341 336 319 315 313 314 315 319 320 323 327 330 330 330 330 331 333 334 337 334 337 337 332 339 343 346 349 346 343 346 351 354 358 361 362 359 358 354 353 359 362 361 360 358 364 366 368 368 367 368 368 368 368 368 368 367 368 367 366 366 366 366 366 366 365 365 364 363 363 362 362 362 362 362 362 361 361 361 361 361 361 362 362 363 363 363 364 363 362 362 363 363 363
352 342 340 329 322 323 317 316 316 317 315 318 326 326 329 330 330 330 329 328 326 328 334 336 335 332 333 343 331 346 350 349 350 354 356 356 357 360 362 359 358 356 359 363 364 362 360 361 363 368 368 368 368 367 367 367 367 368 368 367 368 367 367 366 366 366 366 365 365 364 363 363 363 362 361 361 361 361 361 360 360 360 359 360 360 360 360 361 361 361 361 362 362 362 360 361 362
346 345 341 329 317 316 315 313 313 316 317 323 327 331 333 331 331 329 328 330 331 332 332 333 336 330 333 337 337 346 348 352 354 357 356 356 356 359 358 358 357 357 359 363 363 362 362 362 365 367 368 369 369 367 366 366 366 366 368 368 367 367 366 366 366 365 365 365 365 364 364 363 363 363 362 361 361 361 361 360 360 360 360 359 359 360 360 359 360 360 360 359 358 359 358 358 360
343 339 329 322 320 313 313 313 314 314 318 326 327 328 330 331 330 331 329 328 330 334 336 340 337 332 337 333 337 343 346 353 355 354 356 356 358 359 357 357 358 357 358 360 363 363 366 366 367 368 367 367 368 368 368 368 368 368 367 367 366 366 366 365 364 364 364 364 364 363 363 363 363 363 363 362 362 361 361 361 360 359 359 359 358 358 358 357 359 358 359 360 356 357 357 357 358
335 339 333 321 314 312 311 312 314 317 321 326 328 331 331 333 332 331 332 331 335 333 337 338 335 335 336 335 339 350 353 353 352 349 354 357 358 357 357 359 358 358 359 361 364 365 366 366 368 367 368 368 367 368 368 368 367 367 367 366 365 366 366 366 365 363 363 361 361 363 362 362 363 363 363 362 361 361 361 361 360 360 359 359 359 359 359 360 358 358 360 360 360 362 360 358 356
329 327 326 316 314 314 312 313 314 318 323 326 325 330 333 333 334 330 330 329 332 333 330 336 332 339 333 333 338 346 351 352 352 353 355 357 356 357 358 358 359 358 359 361 363 364 365 367 368 368 367 368 368 368 368 368 367 366 365 367 368 368 366 365 364 365 363 362 362 363 362 362 362 361 361 361 361 361 361 361 360 359 359 359 359 357 359 357 360 361 360 359 361 360 359 358 357
331 322 319 315 313 315 313 313 315 319 320 322 325 328 335 333 331 332 333 333 333 330 330 337 340 339 330 334 342 346 345 349 353 354 355 355 356 357 358 359 357 359 360 363 362 363 366 365 366 368 369 368 367 368 368 367 366 366 366 366 367 367 368 367 365 365 366 364 364 363 362 362 362 361 362 361 361 361 361 361 360 359 359 359 358 357 358 362 362 360 358 356 360 359 356 356 354
334 326 321 313 314 313 313 314 318 316 316 321 328 331 334 333 335 336 334 330 330 330 338 343 343 341 335 338 339 340 345 352 352 354 355 355 356 357 357 358 358 357 361 362 361 363 364 366 367 367 368 369 370 367 366 367 368 369 369 368 366 366 368 368 368 367 367 365 364 364 363 363 363 363 362 362 362 362 361 361 361 360 360 360 361 360 357 363 359 357 357 356 357 355 355 354 353
332 325 320 316 312 312 312 314 316 316 316 323 328 331 333 336 338 336 333 331 334 342 344 346 340 336 326 334 333 339 346 351 352 354 354 355 356 357 358 358 358 358 359 359 361 363 363 365 364 367 368 368 368 368 369 368 368 369 369 370 369 367 368 366 367 367 367 366 366 367 365 364 362 362 362 363 363 362 360 360 360 360 360 360 359 360 359 361 358 356 356 356 357 351 354 354 352
337 321 317 315 312 313 312 315 318 317 317 324 329 335 334 336 338 334 332 337 338 342 342 335 344 334 338 339 339 345 349 351 353 353 353 353 354 357 356 357 356 358 359 360 360 362 364 364 365 364 366 367 368 367 370 368 368 368 368 369 368 368 367 367 367 368 367 366 367 366 362 365 362 362 363 363 362 363 361 361 360 360 360 360 360 359 359 362 358 358 358 358 356 354 356 356 355
325 324 313 314 311 314 314 317 318 313 322 326 333 332 329 330 336 338 343 342 336 337 343 344 339 346 342 343 347 349 351 352 353 352 352 352 353 352 353 353 354 356 357 358 360 361 363 363 364 363 365 371 368 369 369 368 368 368 367 367 367 368 367 366 367 366 367 367 367 365 361 367 368 369 367 367 362 366 363 364 363 360 360 361 363 362 360 362 362 361 358 357 356 355 357 358 358
325 317 315 313 312 314 317 318 321 325 323 327 329 331 331 328 333 336 340 338 339 340 342 345 348 347 348 350 352 352 353 352 350 349 348 348 350 347 348 349 350 349 352 353 359 361 362 364 365 364 365 371 367 365 368 367 367 365 364 366 366 366 367 365 368 366 366 367 366 367 368 366 366 368 368 364 369 368 366 364 366 361 362 364 363 364 364 361 360 360 359 359 358 357 357 361 361
320 312 317 312 312 315 313 322 326 325 325 328 329 332 332 330 333 335 330 332 335 335 339 342 340 344 348 349 350 351 351 350 350 348 346 346 346 346 346 348 348 349 350 352 355 359 361 361 364 362 365 368 366 361 371 369 366 365 364 366 368 363 364 367 368 367 371 370 370 369 367 367 366 367 367 366 367 364 365 365 365 366 367 364 364 366 364 361 361 361 359 359 359 357 358 359 360
317 315 313 312 312 323 325 327 327 331 330 328 329 330 331 331 332 335 329 329 332 333 335 337 338 338 342 346 348 348 349 349 349 347 345 346 346 345 347 347 347 349 350 352 354 360 360 361 362 363 364 366 365 364 370 370 364 365 361 364 362 368 368 367 368 369 369 368 367 368 367 367 366 367 363 362 363 366 368 366 366 368 368 364 364 366 365 361 363 363 361 357 357 358 359 358 359
312 314 315 316 318 324 326 328 331 331 332 329 329 330 329 332 333 333 330 327 329 332 340 339 337 340 342 344 346 348 348 347 347 347 346 346 347 347 348 349 348 349 352 355 356 359 361 361 361 363 366 366 366 364 365 366 369 368 367 369 370 366 367 365 365 367 367 367 367 366 366 367 367 368 368 368 367 369 367 367 366 368 370 370 365 368 367 366 364 364 365 362 363 360 358 359 361
312 308 310 322 321 324 326 329 331 330 331 330 330 328 329 335 333 331 329 325 326 331 338 342 343 343 344 344 346 347 347 346 346 346 346 346 345 347 348 350 353 352 355 353 354 357 359 361 362 363 364 364 365 363 364 365 367 363 365 369 370 370 368 367 366 365 365 367 365 363 363 365 365 366 367 366 365 365 365 365 366 369 369 367 367 365 364 365 362 361 363 362 361 361 360 362 361
312 314 317 320 324 325 328 329 329 331 330 330 330 332 334 332 330 333 334 332 334 338 344 347 346 346 347 348 347 346 345 345 346 346 347 345 347 347 348 349 350 350 353 353 356 357 360 362 363 363 362 364 365 366 366 364 365 364 365 367 366 366 366 364 364 364 364 365 363 364 359 358 360 361 363 363 362 363 362 364 364 367 366 367 369 365 364 364 363 363 362 361 361 359 359 361 361
317 316 321 326 329 327 330 329 332 332 332 331 335 337 333 331 326 336 337 338 342 345 348 348 347 348 348 346 347 346 345 346 346 348 348 347 348 348 350 350 352 353 353 353 355 357 360 360 363 363 363 363 364 365 365 364 364 364 364 366 366 363 364 363 362 364 366 365 366 365 365 361 359 360 362 362 362 363 362 364 365 365 364 364 369 369 365 360 363 365 365 363 359 360 359 361 360
319 321 324 327 329 329 331 334 335 336 335 336 335 332 332 333 332 337 336 340 343 346 348 348 348 347 347 347 347 347 347 348 347 348 350 350 350 350 350 351 352 353 352 353 354 356 359 361 362 362 363 363 363 363 362 362 364 364 363 364 363 364 364 363 363 365 364 365 366 368 367 361 359 359 360 362 363 363 363 363 364 364 365 365 367 366 367 364 362 362 365 363 361 361 361 360 360
312 317 325 328 329 332 335 335 335 335 336 336 333 331 334 336 339 336 338 340 344 346 346 347 347 346 345 346 347 348 348 348 349 349 349 352 351 351 351 351 351 351 352 354 354 356 360 361 360 361 362 362 362 361 361 362 362 361 362 363 363 364 362 363 364 363 364 363 362 365 365 365 361 360 361 365 366 363 362 363 362 363 364 366 365 363 364 364 362 362 362 363 361 362 361 361 361
322 327 329 330 331 333 335 333 334 335 335 337 333 332 332 335 333 329 340 342 344 344 344 346 346 345 345 346 347 348 348 348 349 350 351 352 352 352 353 354 353 353 355 355 355 356 359 360 359 361 362 363 362 360 361 361 363 362 363 363 363 362 363 364 363 363 362 363 363 366 366 365 364 361 361 362 365 364 365 363 361 363 362 363 366 365 366 364 365 364 362 356 357 361 359 361 362
329 330 331 330 331 333 333 334 333 334 331 336 333 331 334 335 335 332 338 343 344 342 343 344 345 346 346 347 347 349 349 350 351 351 349 349 350 351 353 353 354 355 355 356 356 359 358 358 359 361 361 362 361 360 361 361 362 362 363 362 362 363 363 362 362 363 362 362 364 365 365 365 365 363 363 363 361 360 360 359 360 361 361 363 364 363 365 366 365 365 366 364 364 363 360 360 361
331 331 325 328 330 328 332 330 332 334 328 334 332 321 326 331 329 336 340 343 343 342 342 343 344 345 347 348 347 347 348 350 350 350 351 352 354 354 354 356 356 357 358 359 359 359 357 359 359 360 361 362 362 360 360 361 362 362 362 362 363 363 363 363 361 361 362 363 364 364 365 366 366 364 364 364 363 361 360 362 361 362 364 365 365 365 365 365 363 361 362 364 362 361 359 358 359
331 330 327 325 325 324 330 327 329 330 329 333 331 309 319 329 333 337 341 342 342 341 341 342 343 344 346 347 347 348 349 349 349 351 353 354 356 356 356 358 359 359 358 359 359 358 359 360 360 359 361 361 361 361 361 360 361 361 363 363 363 363 363 362 361 361 362 362 363 363 362 363 363 364 361 363 363 362 362 361 361 361 364 367 367 367 363 363 359 360 359 359 357 357 357 358 357
323 323 328 321 319 318 328 326 331 328 331 332 331 311 316 329 333 338 341 342 340 338 339 341 342 343 344 346 347 347 349 351 351 353 355 357 357 357 358 359 360 360 358 358 359 360 360 360 360 359 360 360 361 361 361 361 362 362 362 362 364 365 364 363 363 363 363 363 362 360 359 357 361 362 360 359 359 359 359 358 359 360 363 365 366 365 362 362 362 360 358 357 356 355 356 357 357
324 320 316 319 318 319 326 323 329 324 329 332 325 313 318 330 333 337 340 341 340 338 338 339 341 342 343 344 345 346 348 352 353 354 354 355 357 357 358 359 360 360 359 360 360 361 360 361 362 359 360 361 361 361 362 362 362 363 363 363 364 364 364 364 361 359 358 357 357 355 357 359 361 361 360 359 358 358 359 356 356 360 360 360 360 360 360 359 360 360 359 356 353 353 351 352 356
312 314 315 316 316 318 320 325 328 328 326 329 328 314 325 327 335 337 339 339 339 338 338 339 340 341 342 343 344 345 347 348 351 352 354 355 356 357 358 360 360 362 362 362 361 361 361 361 361 360 360 360 360 362 364 364 365 363 364 364 364 361 358 357 356 354 353 353 352 351 353 355 357 357 357 359 360 358 357 358 355 360 362 359 357 356 356 357 358 355 356 356 355 352 350 351 353
312 307 315 316 315 318 316 323 326 328 328 322 330 322 327 331 335 336 338 339 338 337 338 339 339 341 342 343 343 344 345 346 347 350 352 354 355 357 359 359 360 361 362 362 363 362 360 361 361 361 361 361 362 362 363 363 364 363 362 362 360 358 357 357 357 356 354 353 351 349 350 350 352 351 351 354 353 350 348 346 350 353 357 358 356 355 353 356 355 353 350 352 352 351 348 346 348
308 305 310 309 309 318 317 317 323 327 327 325 327 328 328 332 335 336 337 339 338 337 338 338 339 340 342 342 343 344 344 345 347 350 351 353 354 356 357 358 359 360 360 362 363 363 363 362 362 361 362 363 364 363 363 362 361 360 360 359 359 357 358 358 357 356 355 355 354 351 350 349 347 347 349 347 341 343 344 345 345 350 352 353 351 350 349 351 351 348 347 346 348 348 346 343 347
307 306 308 310 308 312 314 319 323 327 324 323 323 323 328 332 334 336 337 338 337 338 340 339 340 340 341 342 342 343 344 344 349 350 350 352 354 356 355 357 358 359 360 361 362 362 362 363 363 363 363 364 364 363 362 360 358 358 359 359 356 357 358 357 356 355 355 355 354 353 350 348 344 343 342 342 343 344 343 343 343 347 347 347 347 346 346 347 347 344 344 342 341 344 346 346 347
309 306 306 307 309 311 317 322 324 328 325 323 325 329 329 331 333 335 337 338 337 338 338 338 339 340 340 341 342 343 344 344 351 350 351 352 354 355 357 357 357 358 359 360 360 361 362 361 362 361 364 364 363 361 359 355 355 358 359 358 357 358 359 358 357 356 356 356 355 354 348 345 345 344 345 344 343 343 343 344 346 346 347 345 344 344 345 344 344 345 344 344 341 339 340 344 345
308 307 306 305 308 310 316 321 322 324 323 325 329 329 330 332 334 335 337 336 334 336 337 338 339 340 341 342 343 343 346 349 349 349 350 352 352 354 355 356 357 356 358 359 359 360 362 362 362 362 363 362 363 360 353 351 353 357 357 357 358 358 358 357 356 355 354 354 354 353 350 347 346 345 345 346 343 342 345 349 349 349 348 346 345 345 346 345 342 340 341 339 342 340 338 342 344
305 306 305 305 308 315 317 320 324 325 325 325 328 326 328 331 333 335 336 335 337 338 339 339 340 340 341 342 343 345 345 347 347 348 350 350 353 353 354 355 356 357 359 359 361 361 361 361 362 363 364 363 359 353 352 351 355 359 359 359 359 358 361 360 357 356 355 350 351 353 352 348 345 344 344 347 349 350 350 351 349 350 350 349 345 343 344 342 341 339 339 337 337 340 339 342 341
305 304 304 304 311 311 310 318 326 327 325 325 328 324 326 330 333 335 337 337 337 338 338 337 339 341 341 341 343 345 345 345 345 347 347 349 351 353 354 354 356 357 357 359 360 360 361 362 363 362 362 362 357 359 358 358 359 362 363 362 361 358 357 358 360 360 359 357 354 355 352 351 350 348 350 353 355 352 350 350 349 349 349 348 346 343 342 340 339 340 340 339 338 336 338 339 343
304 306 306 308 311 312 315 316 325 328 329 331 327 323 324 328 328 331 335 337 336 337 337 337 339 340 342 345 345 347 344 345 346 347 349 350 351 352 353 355 357 356 357 358 359 360 360 360 361 360 359 361 363 362 362 362 362 361 362 362 360 358 357 356 355 353 356 357 355 355 354 356 355 354 355 354 352 350 351 352 351 348 347 348 346 344 342 341 340 339 339 339 338 336 337 340 344
305 305 307 310 315 315 319 322 319 318 319 327 323 312 313 324 327 329 333 334 335 337 336 337 338 339 340 341 343 346 348 348 349 348 348 350 351 353 355 356 355 355 357 359 358 359 360 359 361 361 360 359 358 358 361 360 357 356 352 348 345 345 343 344 343 345 347 349 349 353 355 355 355 355 354 353 352 351 350 351 351 351 349 348 348 346 346 345 341 341 340 340 339 340 339 339 341
306 307 308 313 315 319 320 318 317 311 310 322 324 309 307 319 322 327 331 332 334 335 335 337 338 339 339 341 344 345 344 345 346 348 350 350 352 352 354 355 357 356 359 358 360 360 361 360 358 358 357 356 357 358 359 359 353 353 350 347 345 343 342 343 349 350 350 351 354 352 353 354 354 352 353 354 354 353 350 351 350 350 350 348 347 345 344 343 343 342 342 342 341 342 341 338 339
306 305 313 316 318 318 318 317 315 315 321 321 320 315 309 310 318 327 331 330 332 333 334 336 337 338 338 341 343 345 345 346 346 346 349 351 352 352 353 357 357 357 355 358 360 360 360 359 357 355 355 355 355 356 355 357 352 349 348 346 344 343 342 343 347 349 352 352 350 350 352 352 353 353 352 354 354 355 353 351 350 350 350 348 347 346 344 345 346 345 345 343 344 343 343 341 341
304 304 317 317 319 319 318 316 313 316 316 314 318 314 309 307 316 321 328 326 329 330 333 335 337 338 339 340 342 344 345 346 346 346 348 350 351 352 355 355 353 352 351 353 358 356 354 354 353 353 352 353 353 354 354 354 352 349 346 343 340 341 343 345 346 349 348 349 348 348 350 350 350 352 352 352 354 353 352 352 351 350 349 348 349 348 348 348 348 346 343 342 342 343 342 346 344
302 311 314 313 314 313 314 314 314 313 310 306 315 315 307 307 313 318 325 325 326 329 332 335 337 338 338 339 342 344 345 346 345 347 350 350 350 350 350 347 348 347 349 354 355 351 349 349 349 350 350 352 352 351 349 348 346 346 343 342 342 342 346 346 347 346 346 346 345 345 346 347 348 348 349 350 352 351 350 349 350 350 349 349 350 350 349 348 347 347 346 344 341 342 343 344 343
310 313 312 311 310 310 310 310 314 310 302 305 315 315 310 302 312 316 318 321 326 329 333 336 338 338 339 340 341 342 343 344 344 344 347 348 344 345 344 344 346 347 347 350 347 347 346 347 347 345 345 349 351 350 348 346 346 346 345 344 343 342 344 345 343 343 344 344 343 344 345 345 346 346 347 349 350 351 351 350 349 350 351 352 352 350 349 348 345 348 347 338 337 339 342 340 342
311 309 309 308 307 310 309 308 311 303 300 306 303 314 313 301 306 316 325 327 328 330 331 332 334 336 337 339 340 342 343 344 344 344 345 344 341 341 341 342 345 346 346 346 345 346 345 345 346 344 345 348 351 352 351 347 345 345 345 344 343 345 345 343 342 341 342 341 342 342 344 343 344 345 347 346 347 346 349 350 351 350 348 348 347 348 350 350 352 351 350 341 341 343 343 342 339
308 308 308 304 299 302 297 302 298 299 299 302 304 311 309 307 312 318 321 326 328 330 331 332 334 336 338 339 341 342 343 343 343 343 344 343 340 340 340 343 345 344 345 346 345 342 345 345 344 341 341 344 346 349 349 349 346 346 346 347 346 346 346 345 343 341 342 342 342 342 341 340 341 342 342 343 343 344 346 347 348 348 347 347 348 349 350 350 350 351 350 344 345 346 345 341 336
306 306 308 303 296 296 292 296 298 297 301 301 304 311 306 312 314 320 319 321 329 331 333 334 336 338 338 340 341 341 343 343 343 342 343 343 341 340 341 342 344 344 345 345 345 344 344 344 344 341 340 344 344 344 343 343 343 345 349 347 347 348 346 344 343 341 342 342 341 340 339 339 339 340 340 341 342 345 344 345 346 346 347 347 347 347 347 347 347 346 348 347 347 349 347 344 342
306 306 307 305 303 297 293 296 294 296 299 302 306 303 303 303 308 320 320 325 326 329 333 335 337 339 341 341 342 342 342 343 344 343 341 341 340 340 340 342 343 343 343 342 344 345 344 344 343 341 341 343 342 341 344 343 346 346 348 348 348 349 346 345 344 343 342 341 340 339 340 340 339 340 340 342 344 343 343 343 344 343 343 343 343 343 344 346 346 346 346 344 342 342 343 346 345
305 304 306 305 303 309 299 301 301 299 298 299 302 303 308 309 320 321 323 322 324 325 326 330 334 337 339 339 339 339 340 341 342 342 341 341 340 340 340 341 341 342 345 343 344 344 343 343 343 342 341 341 343 343 343 346 345 348 348 346 347 347 347 346 345 345 343 341 340 339 339 340 341 340 342 342 342 342 341 341 341 341 341 341 342 343 342 341 343 343 344 342 339 342 340 341 344
304 303 303 305 309 309 302 302 299 300 299 298 308 306 310 316 317 317 320 322 324 324 324 326 331 335 337 336 338 339 340 341 341 340 340 340 339 339 339 341 339 340 342 342 344 345 344 343 342 343 342 342 342 342 343 344 345 345 345 345 345 344 343 341 339 339 340 341 341 341 341 340 341 342 341 342 342 343 342 341 340 340 340 340 341 341 340 340 340 342 339 341 339 344 345 343 342
305 302 305 307 309 311 309 298 300 299 295 299 301 300 305 306 300 318 320 321 323 324 324 326 331 336 335 335 337 338 339 341 342 342 341 340 339 338 338 340 339 340 341 344 347 347 347 345 343 341 342 340 341 341 343 343 343 344 344 343 344 345 343 340 340 339 340 340 341 341 341 340 340 341 341 342 342 342 342 342 341 341 340 339 339 339 339 340 341 340 340 340 342 344 338 339 341
308 308 310 305 301 301 306 306 294 294 294 297 299 300 303 307 306 315 317 321 324 325 327 328 330 333 334 336 337 339 340 341 340 339 339 338 337 337 338 338 338 342 345 347 346 346 344 344 345 343 341 341 341 343 344 346 344 344 343 343 343 344 342 341 340 341 341 340 338 339 340 340 341 342 342 341 341 341 341 341 341 339 338 338 338 338 340 339 339 338 338 337 338 340 340 339 338
308 309 306 306 308 311 304 303 305 302 296 295 297 301 299 314 311 316 315 322 327 325 326 327 330 332 335 336 336 337 338 339 339 338 337 337 337 336 336 337 337 339 342 343 342 341 338 341 343 342 342 343 343 343 344 343 345 343 342 343 343 343 342 341 341 341 340 340 339 338 339 338 340 341 341 341 341 341 341 340 340 339 338 339 338 338 338 338 338 337 337 335 336 336 335 335 337
304 306 304 306 305 304 305 303 302 300 299 297 297 295 302 312 319 320 322 326 327 327 327 329 331 333 335 337 337 337 338 339 338 338 337 337 336 335 335 338 339 340 342 341 339 339 338 339 340 342 341 341 340 342 342 341 343 343 341 340 339 341 340 341 341 341 341 341 341 340 339 340 341 341 341 341 341 341 342 341 340 339 339 339 338 338 338 338 338 337 336 337 337 335 335 335 337
307 306 305 306 302 302 299 298 300 300 300 294 296 296 306 314 322 326 326 328 325 329 330 331 332 334 336 336 337 338 338 339 338 337 336 336 337 336 336 337 338 337 336 337 339 340 339 338 337 338 337 337 337 340 341 341 343 342 342 341 341 342 341 341 341 342 342 341 341 340 340 340 340 341 342 340 341 342 342 342 341 341 340 339 339 340 340 339 337 335 335 335 335 335 335 335 335
Wind_Speed
1 3 4 3 1 1 3 2 2 3 1 7 6 5 7 2 7 10 11 10 7 4 3 7 8 7 3 5 8 10 9 3 5 2 8 7 11 8 10 13 11 10 8 6 6 5 5 7 11 12 11 11 14 16 16 17 17 18 19 18 18 17 17 15 15 16 15 15 15 15 14 14 14 14 13 13 13 13 12 11 11 11 11 11 11 11 11 10 10 10 10 10 10 10 9 9 9
3 4 3 3 1 3 1 2 2 2 3 8 7 1 5 6 7 10 11 7 5 7 6 9 7 7 9 14 10 5 11 9 4 9 11 15 10 10 11 14 12 10 7 6 5 5 6 5 7 13 14 14 14 17 17 18 18 18 18 18 17 16 16 15 15 15 15 15 15 15 15 14 14 13 13 13 13 12 12 11 11 11 10 10 10 10 10 10 10 10 9 9 9 9 9 8 8
5 5 4 2 2 1 1 2 4 2 7 9 6 5 1 6 8 8 8 7 10 12 11 10 9 6 7 5 7 6 4 6 10 13 13 18 14 8 12 12 11 9 8 7 6 6 5 4 3 12 14 14 15 17 17 18 18 18 18 17 16 16 15 15 15 15 15 15 15 15 15 14 14 13 13 13 13 12 12 11 11 10 10 9 9 9 9 9 9 9 9 9 8 8 8 8 8
5 4 3 2 0 2 0 2 3 4 8 4 5 3 2 6 6 5 6 11 14 14 12 9 4 4 1 10 8 10 8 7 7 14 13 12 10 14 13 13 11 8 6 7 8 8 8 6 4 8 14 15 16 17 16 17 18 18 17 16 16 15 15 16 16 15 15 15 15 15 14 14 14 13 13 12 12 12 11 11 11 10 9 9 9 8 8 8 7 8 8 8 7 7 7 7 7
6 4 2 2 2 2 2 2 2 1 8 1 6 2 4 6 7 9 9 11 12 11 9 7 6 7 10 9 2 1 5 9 9 8 12 10 15 14 15 15 10 8 7 6 6 6 7 6 4 6 13 15 16 17 16 16 17 17 17 16 15 15 15 16 16 15 15 14 14 14 14 13 13 12 12 12 12 11 11 11 10 10 9 9 8 7 7 7 7 6 7 7 7 7 7 7 7
4 3 3 3 2 1 2 4 6 8 4 2 4 5 6 8 10 11 9 7 7 7 7 5 5 5 6 8 5 5 7 4 9 9 12 12 17 17 18 15 12 8 6 5 8 6 8 7 6 9 11 14 15 16 16 15 15 15 17 16 16 15 15 15 15 16 15 14 14 14 13 12 11 11 11 11 11 11 10 10 10 9 9 8 8 7 6 6 6 6 6 6 6 6 6 6 6
4 4 1 2 2 2 4 3 5 5 6 3 5 6 8 10 10 11 11 9 7 9 4 9 15 12 11 6 11 7 2 8 7 11 9 15 16 15 16 14 15 12 7 4 5 6 7 6 6 14 14 13 13 14 14 14 14 14 14 14 13 14 15 14 13 14 14 14 13 13 12 12 11 11 11 11 10 10 10 9 9 9 8 7 7 6 6 5 6 6 5 6 5 5 5 5 5
1 4 2 1 4 2 3 2 4 2 4 2 6 9 10 11 9 7 8 7 5 5 9 7 3 10 8 1 7 6 6 4 10 13 15 14 15 15 15 14 15 16 13 9 7 5 5 7 6 13 13 13 13 14 14 14 13 12 12 12 11 12 14 13 13 13 13 13 12 12 11 11 11 10 10 10 10 9 9 8 8 8 7 6 6 5 5 5 4 4 4 4 5 3 4 4 4
2 3 2 2 3 1 3 3 3 1 4 6 9 9 11 10 7 6 6 6 10 9 7 7 5 4 6 13 10 7 8 11 12 15 15 15 15 14 10 12 13 13 13 10 10 8 8 7 8 12 12 12 12 13 13 14 13 13 12 11 12 12 12 12 13 13 12 12 12 11 11 10 10 10 9 9 8 8 8 7 7 6 6 5 5 4 3 3 2 3 3 3 3 2 2 2 2
1 3 2 2 1 6 2 3 1 4 4 5 12 10 9 9 7 6 8 8 8 8 5 2 5 13 11 14 10 6 7 12 13 14 14 14 14 13 13 12 13 14 14 12 12 11 10 12 11 11 12 12 13 12 12 12 12 12 13 13 13 12 12 12 12 12 11 11 11 11 10 10 9 9 9 8 7 7 6 6 5 5 5 4 3 2 2 1 2 2 2 3 3 2 1 1 1
1 1 0 1 3 5 5 4 3 6 8 7 10 10 8 7 9 7 6 8 3 5 9 12 13 11 11 9 7 5 10 13 14 15 14 14 13 13 12 12 12 12 12 12 11 10 10 11 13 12 11 12 13 12 11 11 11 11 13 12 12 12 11 10 11 10 11 11 11 10 10 9 8 8 8 7 7 6 6 5 5 4 4 2 2 1 0 2 3 5 8 8 7 9 8 4 2
0 0 1 2 3 3 4 4 5 6 9 10 8 9 5 8 8 9 8 8 5 9 7 3 7 11 12 9 6 8 12 13 13 13 14 14 12 12 12 10 11 11 11 11 10 9 9 10 10 11 12 12 12 12 11 11 12 12 13 12 11 11 11 10 11 10 9 10 10 10 9 9 7 6 5 5 5 5 5 4 3 3 2 2 1 2 2 0 5 8 9 10 10 8 7 6 4
1 1 1 1 2 1 2 4 5 8 7 5 11 6 8 8 5 10 8 7 2 5 4 4 15 3 7 8 6 10 12 13 13 14 13 12 12 10 10 10 11 11 10 9 9 9 9 8 9 9 10 12 12 13 12 12 13 12 11 12 11 11 11 10 10 11 10 9 9 8 8 7 6 5 4 5 4 4 4 3 3 2 3 3 3 4 4 5 8 5 4 1 5 5 3 3 1
3 2 1 2 1 3 3 4 5 6 4 5 6 9 5 5 5 8 10 7 3 3 5 9 5 12 13 11 8 8 11 14 14 14 11 12 11 10 11 10 10 10 9 8 8 8 7 7 7 6 10 9 9 11 11 11 11 11 11 11 11 11 11 10 10 10 10 9 8 7 6 6 5 5 2 4 4 4 5 5 4 4 4 5 5 3 2 5 2 3 2 1 3 1 4 4 4
3 1 1 2 2 2 2 4 5 6 5 4 8 8 6 5 9 7 10 8 5 4 8 3 4 5 6 11 9 11 12 15 15 14 13 12 12 11 11 9 9 9 9 8 7 7 7 6 7 6 7 7 8 6 7 8 9 10 10 9 10 10 10 9 9 8 8 8 7 6 6 4 4 2 3 0 1 3 5 4 5 5 5 6 6 5 1 3 1 0 1 3 3 2 2 3 2
2 2 1 1 3 3 3 3 1 7 5 5 6 11 12 8 6 7 3 3 7 6 1 2 2 5 10 4 14 16 16 16 14 14 14 13 11 11 10 9 8 8 8 6 6 6 6 7 6 5 5 7 7 7 6 8 9 9 9 9 9 9 9 8 8 8 7 7 7 6 4 3 1 3 1 1 4 3 4 5 5 5 6 7 6 6 2 4 3 4 4 5 3 2 2 3 4
1 2 2 2 5 4 5 4 8 6 7 8 8 9 8 7 5 8 6 11 11 6 7 5 3 2 8 9 18 20 18 15 15 15 15 12 10 9 8 7 7 7 6 6 4 6 7 7 7 5 3 4 5 5 6 7 8 10 9 10 9 9 9 8 8 8 7 7 7 7 5 2 3 3 3 3 2 4 5 7 7 7 8 7 7 7 5 1 3 4 4 4 5 4 4 5 6
3 2 3 5 3 3 6 7 5 7 12 11 9 5 13 10 7 9 12 12 11 10 10 10 13 13 14 17 19 19 19 17 16 16 13 12 10 9 9 8 8 8 8 8 6 5 6 6 7 6 6 7 5 3 4 6 6 7 7 7 7 7 7 7 6 6 6 5 7 6 4 2 1 2 3 2 3 3 4 5 7 6 7 9 9 8 6 1 2 4 7 7 5 4 5 4 3
1 2 1 6 3 3 1 3 6 11 9 11 7 3 9 9 10 6 3 8 8 9 8 10 14 15 18 19 19 19 18 17 15 14 14 14 11 12 10 9 8 8 8 7 8 8 7 7 9 9 8 7 8 6 3 4 3 2 0 3 3 5 6 5 4 4 3 3 2 3 4 3 3 3 3 4 3 4 6 7 7 7 7 8 10 9 6 2 5 7 8 7 4 4 4 4 5
2 2 5 2 1 3 3 7 8 3 15 11 9 6 11 6 4 4 4 8 6 7 8 9 13 16 18 18 19 18 17 17 15 14 14 13 11 12 11 10 9 9 8 8 7 7 8 7 8 6 6 6 4 5 4 4 5 4 5 5 5 5 5 4 5 5 5 4 4 4 4 5 5 5 4 7 7 5 5 6 7 8 7 7 10 8 4 3 7 8 7 5 4 1 2 3 4
2 1 4 5 6 7 2 1 8 9 10 11 11 9 11 5 4 2 7 6 4 3 5 7 16 19 19 18 19 18 18 18 16 14 13 13 12 10 10 9 8 8 7 7 6 7 8 7 7 7 6 6 6 5 5 5 4 4 4 3 3 4 5 5 6 6 5 4 3 3 4 3 3 3 4 5 4 4 5 5 4 4 3 4 6 7 6 4 5 4 4 5 3 2 2 3 4
3 4 3 7 4 7 3 5 7 9 9 13 10 9 7 6 7 6 2 4 4 2 6 7 16 20 21 20 18 17 18 17 16 16 15 15 15 13 11 10 8 8 8 8 9 8 9 8 8 7 7 7 7 6 5 4 3 5 4 3 3 4 5 5 5 6 6 5 4 5 4 4 4 4 4 4 4 5 6 5 5 4 4 5 5 7 6 6 5 3 3 3 2 2 3 3 3
5 4 5 3 4 8 5 6 6 11 11 11 7 6 6 6 7 6 7 6 3 2 9 13 15 17 17 18 18 17 17 17 16 16 15 15 15 13 13 11 11 10 9 9 8 9 8 9 9 8 7 6 7 5 3 4 5 5 4 4 5 6 5 5 6 6 6 5 5 6 7 7 5 5 5 5 6 6 6 6 6 5 5 5 5 5 6 6 5 3 3 4 3 3 4 5 4
6 5 2 7 6 10 6 9 8 11 13 9 8 7 7 7 7 5 10 5 8 11 14 14 16 16 16 16 16 17 17 16 15 13 13 13 14 14 12 11 10 8 8 9 8 8 8 9 9 8 7 7 6 6 6 5 5 6 6 5 5 5 5 5 5 5 5 5 5 4 5 6 6 5 5 6 6 6 7 6 6 5 5 5 4 4 6 6 5 5 4 4 4 4 5 5 5
9 7 4 7 9 7 9 10 12 14 13 11 10 10 7 7 6 5 8 7 11 13 14 15 15 16 14 14 14 14 14 13 12 12 10 8 10 10 10 8 9 8 9 10 8 8 9 9 9 9 8 8 7 7 7 6 6 6 6 6 6 5 5 5 5 5 5 5 5 5 5 6 6 6 6 5 5 6 7 7 7 7 6 5 4 4 6 7 7 6 5 5 5 5 4 5 4
4 5 6 8 9 10 10 12 13 13 7 12 14 9 8 10 9 11 5 8 11 13 14 14 14 14 13 13 14 14 14 14 12 12 11 9 9 10 10 9 9 10 10 9 8 8 7 9 10 10 9 8 8 7 7 7 7 7 6 6 6 6 6 6 5 5 5 5 5 5 5 6 6 6 6 6 5 7 7 7 7 7 7 6 5 6 5 6 7 7 6 5 5 5 5 5 4
5 12 11 11 9 9 5 14 12 9 8 9 14 9 6 2 3 5 5 8 11 13 13 12 12 12 12 12 11 12 13 13 13 11 10 9 9 9 10 10 10 10 8 9 9 8 7 8 9 10 10 9 8 8 7 7 7 7 6 6 6 6 6 6 6 5 5 5 5 5 6 7 7 8 7 7 6 6 7 8 8 7 7 6 5 6 6 7 7 7 7 7 6 6 6 5 5
13 17 15 10 7 7 7 12 12 8 6 4 15 13 11 7 6 5 7 8 10 13 12 11 10 10 10 11 11 10 10 10 10 10 12 12 10 10 11 10 10 9 9 9 7 6 7 9 10 10 9 9 8 8 7 7 7 8 7 6 7 7 7 7 7 7 6 6 6 6 6 7 7 8 9 8 8 8 8 8 8 8 7 6 6 6 6 6 7 7 8 7 6 6 7 6 6
16 18 11 9 7 7 5 10 6 2 8 9 5 12 12 10 5 5 8 9 10 10 12 10 9 8 9 9 9 9 9 10 10 10 11 10 9 8 10 10 8 8 6 8 8 8 9 8 8 9 9 9 10 10 8 8 7 7 8 8 7 7 8 7 8 8 7 6 6 7 7 8 7 8 8 9 9 9 8 8 8 8 7 6 6 6 7 7 6 7 7 6 6 6 7 8 7
10 7 13 9 7 7 6 3 2 2 4 4 5 2 3 5 6 6 8 10 11 10 10 10 8 8 8 8 8 8 8 10 11 10 9 8 8 8 9 8 8 7 5 6 8 9 8 6 6 7 9 11 11 9 8 8 8 7 6 6 7 7 7 7 7 7 7 7 7 7 6 6 7 7 9 9 9 9 9 9 9 8 7 7 7 6 6 6 6 6 6 5 6 7 7 7 7
8 5 6 9 9 8 8 2 4 3 2 5 5 4 3 4 5 7 8 11 12 10 10 9 8 8 8 8 7 8 9 10 10 10 9 9 7 7 8 7 8 8 6 6 8 9 9 7 6 7 9 11 10 10 9 9 7 7 6 6 5 6 6 7 6 7 6 6 5 4 6 7 8 8 7 9 10 10 10 11 10 9 8 7 6 5 6 6 6 6 5 5 6 7 8 7 7
7 10 4 1 7 8 8 1 4 3 2 5 3 6 4 4 6 7 8 10 10 10 10 9 9 8 9 8 8 8 8 8 8 8 9 8 8 6 7 7 7 8 8 7 7 7 8 8 8 8 8 10 9 9 9 8 8 7 6 6 6 7 5 5 5 3 3 4 5 7 8 6 6 7 8 9 9 11 10 10 10 9 8 7 7 7 7 7 6 5 5 5 5 7 7 10 7
1 2 7 9 2 7 4 6 4 3 4 4 5 4 4 3 6 8 7 10 10 9 9 9 10 9 9 8 7 7 7 8 7 8 8 7 7 6 5 6 6 6 6 7 7 7 7 8 7 8 9 9 10 10 9 7 7 9 9 7 6 4 5 6 5 5 6 6 6 5 6 6 8 9 7 8 9 9 10 8 11 10 8 8 7 7 7 7 7 6 5 4 6 7 9 11 9
6 2 7 5 11 8 7 5 2 3 3 0 5 7 2 5 8 8 8 9 10 8 9 9 9 8 8 7 7 7 7 7 8 8 8 8 6 7 6 5 5 5 5 6 6 6 7 7 7 8 8 8 7 7 7 7 6 6 6 6 6 7 8 8 8 7 8 8 8 8 5 8 8 7 6 5 5 4 4 7 8 6 6 6 7 7 8 7 6 4 4 3 4 5 8 9 11
10 6 6 4 2 8 5 7 5 5 3 2 4 7 7 6 6 8 8 7 9 8 8 8 8 9 8 8 8 8 6 7 6 4 5 6 7 7 7 6 6 6 5 6 6 6 6 7 7 8 8 7 7 7 7 5 4 6 6 8 9 10 10 9 7 8 8 8 8 10 7 2 4 7 8 5 4 4 4 6 8 9 4 6 7 7 8 10 9 6 5 5 2 3 8 12 10
10 11 8 8 10 10 7 2 2 7 4 6 5 6 8 7 7 5 7 6 7 6 5 5 6 7 7 7 6 6 5 6 1 0 2 4 5 5 6 5 5 5 5 5 6 6 7 7 6 7 8 7 6 7 5 4 4 6 6 5 7 6 5 6 6 6 7 7 8 8 7 5 7 8 9 11 6 2 6 12 11 11 10 9 9 10 9 8 9 9 7 6 7 6 6 9 11
5 4 5 6 7 5 3 3 3 1 6 3 1 6 8 8 6 5 5 5 4 5 8 7 6 6 6 6 6 5 5 4 1 1 2 3 4 4 5 4 5 5 5 6 6 7 7 7 7 8 6 7 7 6 3 2 4 4 5 5 5 4 4 3 3 5 6 6 7 5 3 3 6 6 6 9 8 5 7 10 11 13 12 10 10 10 9 10 10 7 5 5 6 6 8 9 11
6 4 5 4 5 6 3 5 2 1 4 3 3 8 7 6 4 3 3 5 7 7 6 6 7 5 4 5 5 5 4 2 2 3 3 4 4 5 5 4 5 6 5 6 7 7 7 7 7 5 5 6 6 1 2 3 4 4 5 6 5 4 3 2 3 3 4 5 7 6 4 6 5 5 8 9 10 8 9 9 10 12 10 9 10 11 12 11 8 8 7 6 7 7 9 8 9
4 5 4 5 4 7 4 4 1 1 3 3 8 8 6 5 4 3 5 5 2 3 2 3 5 6 5 5 5 4 4 4 3 3 4 4 5 6 5 5 5 5 4 6 5 5 5 5 5 4 4 4 4 1 4 4 5 6 6 5 4 5 3 2 3 4 3 6 6 7 6 6 9 10 13 13 10 10 10 8 10 11 11 10 10 11 11 11 9 10 9 9 6 9 11 9 10
5 5 7 8 10 11 6 3 3 4 2 7 9 7 4 2 2 4 3 5 3 2 3 2 3 4 6 8 7 6 6 6 6 5 6 6 6 6 5 5 5 3 3 3 3 3 3 3 2 3 2 2 4 7 7 6 5 4 4 5 5 4 4 5 4 4 3 6 7 6 7 9 10 10 12 11 8 8 11 12 12 10 11 12 11 11 12 11 9 10 10 9 9 8 10 12 13
2 6 6 6 13 9 6 8 6 9 10 9 10 5 3 4 7 7 5 4 4 5 5 4 4 4 2 1 3 5 6 6 6 6 6 6 7 7 7 5 3 3 3 1 2 2 1 2 2 2 3 2 2 4 4 3 3 2 1 2 2 2 2 2 3 3 3 3 3 4 6 6 6 7 7 8 7 10 11 11 10 10 10 11 10 11 11 13 10 10 11 11 12 12 12 13 10
4 7 7 8 12 9 11 13 11 5 4 7 10 4 5 7 9 9 6 5 8 5 7 8 7 6 5 6 7 6 5 3 4 6 6 7 7 6 5 4 4 3 2 2 3 4 4 4 4 5 4 4 5 4 3 3 2 2 3 5 5 5 5 5 6 7 7 6 6 6 5 5 6 7 8 9 10 10 10 11 11 10 9 10 9 11 10 10 12 13 14 14 15 14 11 10 9
5 4 8 6 11 12 15 12 9 7 6 9 3 7 3 3 10 11 10 9 10 5 8 10 9 8 8 8 8 8 8 7 5 3 5 6 6 6 6 5 4 4 4 4 5 6 6 5 5 5 5 4 3 3 3 2 3 4 5 4 4 5 6 6 6 6 6 6 6 7 7 6 6 7 7 7 9 9 9 10 11 10 9 9 9 10 10 12 12 13 13 15 15 12 13 13 12
3 2 10 10 11 14 15 15 8 3 7 7 1 2 3 2 8 11 11 10 10 10 11 11 10 10 10 10 9 9 8 8 7 7 8 6 6 7 7 5 4 3 3 4 6 5 6 5 6 5 4 4 4 3 4 3 3 3 3 3 3 4 5 6 6 6 6 6 7 7 6 7 8 7 7 6 7 7 7 8 10 9 8 10 10 10 10 10 10 11 11 15 14 13 14 14 12
3 1 4 8 7 7 10 7 4 3 5 5 6 1 3 4 2 2 9 12 14 15 14 13 12 12 12 11 11 11 10 9 9 8 8 8 7 6 3 4 3 3 3 4 5 7 7 6 6 5 5 4 3 3 3 3 2 2 2 3 3 3 4 4 4 5 5 6 7 7 7 8 8 8 8 8 8 6 5 7 7 8 8 8 8 9 10 10 11 11 11 14 16 15 13 11 9
1 10 13 11 10 9 5 5 6 3 2 5 9 9 6 5 2 4 4 10 14 17 17 15 14 14 13 12 11 11 9 8 8 8 7 6 4 4 3 3 4 3 3 5 7 7 7 6 6 6 5 3 3 4 3 3 3 2 2 2 3 3 3 3 3 4 4 4 5 6 6 6 6 6 7 7 7 7 6 6 6 7 7 7 6 8 8 9 9 9 11 7 5 10 10 11 11
14 12 14 11 9 6 4 5 2 3 4 4 4 11 8 5 4 8 10 11 17 14 10 11 12 13 13 12 12 11 10 9 8 8 6 4 3 3 3 3 4 4 4 6 7 7 6 6 6 6 5 4 4 4 4 3 2 2 3 3 4 5 5 4 4 4 3 4 4 4 5 6 6 6 7 7 7 7 5 4 4 5 5 6 7 7 9 8 9 10 6 7 11 13 10 9 10
8 6 9 10 7 3 5 3 2 4 5 2 3 9 8 8 4 6 12 3 5 10 13 16 16 16 14 13 12 12 12 10 9 7 7 6 4 3 3 4 5 6 6 7 7 6 6 5 5 6 4 4 4 3 3 3 2 1 1 2 4 4 5 4 5 6 5 6 5 5 5 6 6 6 6 6 6 7 6 4 4 4 5 6 8 8 8 9 8 8 7 4 9 11 10 5 5
4 9 8 6 2 1 4 2 6 7 5 3 2 6 4 11 12 5 5 11 6 8 11 13 17 16 15 14 14 11 11 11 10 8 7 6 7 7 7 6 6 7 7 7 7 7 5 5 5 5 4 3 3 2 2 2 1 1 0 1 2 2 3 3 4 5 5 5 5 6 7 7 7 7 7 7 7 8 6 6 5 4 4 6 7 8 9 10 9 9 9 8 10 11 8 8 11
6 10 6 5 4 4 3 2 2 4 2 3 1 2 6 3 8 15 15 12 12 9 10 11 14 15 16 15 13 12 12 12 10 9 8 7 7 7 7 7 7 7 7 7 7 6 5 5 5 5 4 2 2 1 1 1 1 2 1 2 2 1 2 3 3 4 5 5 5 6 6 6 6 7 6 7 7 7 7 7 7 6 6 7 7 7 8 9 9 9 10 10 10 9 8 9 11
6 3 6 4 6 4 5 5 7 5 0 4 3 5 4 6 2 3 3 3 2 6 8 8 9 12 13 14 12 13 12 11 9 8 9 9 8 8 8 8 8 7 8 8 7 6 6 5 5 6 5 3 2 2 1 2 1 1 1 1 1 1 2 3 3 3 4 5 5 6 6 5 5 5 6 6 7 7 7 7 6 6 6 6 7 8 8 8 9 9 8 8 10 10 10 8 10
2 2 2 3 5 3 4 2 1 3 4 3 3 4 2 5 2 2 2 6 5 6 8 10 10 9 10 10 12 12 11 11 10 10 9 8 8 8 7 8 7 8 8 7 7 6 6 5 5 5 4 4 3 2 2 2 1 1 0 1 1 1 2 2 3 2 3 3 4 5 5 5 5 5 5 5 6 5 6 7 6 6 7 7 7 7 8 8 9 9 8 6 11 7 11 12 11
5 4 6 1 3 6 6 3 3 1 1 3 2 5 4 6 6 3 4 5 7 5 8 10 12 11 12 12 12 12 12 11 10 10 9 10 8 8 8 9 8 8 8 8 8 7 7 6 6 5 4 4 3 2 2 2 1 1 0 0 1 2 2 3 4 5 4 3 3 4 4 5 5 4 5 4 5 5 5 6 7 7 6 7 7 7 8 8 9 8 8 9 10 10 10 10 11
8 5 5 7 0 3 1 2 1 1 4 2 3 5 3 3 1 1 4 6 5 5 8 11 11 11 13 13 13 13 13 12 11 9 8 9 9 9 8 8 10 10 9 8 8 6 5 6 6 6 5 4 3 2 2 2 1 1 1 1 1 2 2 2 3 4 4 4 4 4 4 4 5 5 5 5 5 6 5 6 6 7 7 8 8 8 8 8 9 8 9 10 10 9 10 10 11
1 2 10 4 3 4 3 2 3 3 5 2 3 3 5 5 4 0 4 5 6 6 6 9 12 13 14 13 14 13 12 10 10 11 9 9 9 9 9 10 10 8 7 7 7 6 5 4 4 4 5 4 2 2 1 1 1 1 1 1 2 2 2 2 3 4 4 5 5 5 4 4 5 5 5 5 6 7 6 6 6 7 7 8 9 9 9 8 8 9 9 9 9 9 9 10 10
7 9 5 3 2 2 5 1 1 2 1 2 2 1 4 6 4 5 4 5 4 7 8 11 14 16 13 12 13 14 14 12 11 11 10 10 10 10 11 11 10 9 8 7 7 6 7 5 4 4 3 3 2 3 2 3 2 2 2 2 3 2 2 3 4 4 4 5 5 6 6 6 5 5 5 6 7 7 8 8 7 8 9 8 9 9 9 9 10 10 10 10 10 11 11 11 11
4 6 2 2 4 1 2 2 0 2 2 3 2 4 3 3 5 5 6 5 7 10 10 10 12 13 13 12 12 13 14 12 11 11 11 11 10 10 9 9 8 7 6 6 6 7 6 4 5 5 5 4 4 3 3 3 2 2 3 4 3 3 4 4 5 5 5 5 5 5 6 6 5 6 5 6 7 7 8 8 8 9 9 10 10 10 9 9 10 11 11 11 12 13 13 12 12
9 10 9 8 9 6 4 3 2 1 2 2 4 6 4 1 3 7 6 2 5 9 10 10 12 12 12 11 13 12 11 11 11 11 12 11 10 9 8 6 5 6 8 8 6 5 5 5 5 5 4 4 4 4 4 3 3 2 3 4 5 4 4 5 6 5 5 5 5 5 5 5 7 7 5 6 7 7 7 8 8 9 9 9 10 10 10 9 10 11 11 9 10 12 13 14 14
Wind_Direction
243 154 125 126 179 5 257 325 78 10 74 59 76 66 91 81 108 120 111 138 133 134 114 117 129 137 352 53 75 80 34 23 16 294 95 123 140 155 149 135 148 166 160 140 120 127 142 148 143 142 128 141 138 133 131 128 126 126 128 127 127 126 129 128 130 126 126 124 123 121 119 115 114 115 113 112 111 111 113 105 104 106 107 107 110 111 110 108 105 103 103 105 107 110 111 112 111
171 141 131 141 89 290 85 316 86 63 72 84 65 314 93 116 141 121 135 135 107 141 122 113 110 71 85 100 109 120 48 28 30 84 95 117 135 147 139 135 152 165 149 127 127 136 131 132 147 139 148 144 135 133 132 130 128 128 130 129 130 130 130 131 130 128 127 126 124 122 119 118 118 117 116 114 114 114 113 111 108 107 107 109 111 110 108 110 108 108 108 108 110 111 111 109 107
150 157 142 159 154 304 95 252 69 357 72 77 68 57 146 129 115 127 120 117 121 123 120 109 96 85 103 131 68 1 78 52 95 107 114 132 128 150 139 134 146 147 130 133 133 125 135 146 209 152 146 138 135 133 133 133 132 131 132 132 132 132 133 134 134 133 131 128 125 123 122 121 120 119 119 117 117 117 116 115 114 114 115 113 111 111 110 111 112 110 109 108 109 109 107 104 104
149 167 152 199 236 192 225 74 65 63 69 59 96 88 96 97 94 77 91 117 123 127 125 125 101 349 337 72 90 85 90 94 92 121 127 146 137 139 143 132 133 133 131 140 138 137 148 163 203 154 136 133 131 129 130 133 132 135 135 136 137 137 138 138 137 134 131 128 127 125 124 124 123 120 119 117 116 118 117 118 119 118 117 115 112 110 109 106 106 107 105 104 103 104 102 100 99
155 166 193 302 278 60 17 57 91 359 71 355 92 111 96 85 96 103 104 115 125 128 125 116 97 61 63 68 90 38 99 106 114 118 131 122 132 140 138 134 132 133 138 126 129 140 149 161 192 145 134 131 129 129 132 134 136 137 140 139 139 140 140 138 135 132 130 131 129 127 125 124 122 119 117 117 117 117 118 119 121 123 119 114 108 102 101 101 99 97 98 100 100 101 99 97 96
135 175 211 292 12 162 212 102 71 63 64 73 109 92 79 105 114 117 112 104 98 102 107 107 112 147 75 47 20 97 138 133 136 129 134 137 140 140 138 134 128 131 143 142 144 141 151 178 200 140 129 130 128 131 132 136 136 137 139 139 140 139 137 136 135 134 133 133 128 127 124 123 121 121 120 118 120 120 121 120 120 118 114 110 103 96 88 80 78 77 79 87 94 92 94 99 101
150 178 197 207 157 233 56 67 66 66 73 315 92 110 114 116 120 124 124 109 89 80 83 102 112 120 99 108 75 60 53 107 138 134 137 139 136 135 137 136 128 139 150 146 131 139 141 179 166 140 130 123 128 130 132 134 133 130 131 132 130 132 134 134 133 134 136 132 130 126 125 124 125 125 123 122 121 121 121 121 117 114 109 100 95 87 82 79 68 65 65 72 76 87 88 94 99
89 294 3 330 33 327 54 57 73 11 80 340 103 114 121 124 127 123 127 139 125 110 103 105 66 88 75 232 98 69 84 102 101 124 128 136 137 138 140 137 134 143 148 140 133 126 140 157 147 129 126 128 130 134 135 134 132 131 130 130 131 132 135 138 138 138 133 130 128 127 128 129 130 130 130 129 127 126 122 120 113 106 101 96 83 85 73 64 61 64 72 62 59 52 86 94 92
204 274 158 252 77 60 88 42 63 97 94 120 101 107 124 125 125 106 86 95 104 102 117 134 126 78 97 89 82 86 92 106 111 122 130 131 135 138 136 135 137 135 133 133 127 136 143 147 150 131 133 133 133 135 137 136 137 137 133 136 140 136 137 142 140 138 134 131 130 130 132 135 134 134 134 133 129 124 120 112 106 101 99 79 70 58 55 61 66 72 54 78 85 73 65 64 94
153 323 41 49 253 95 86 95 98 62 99 117 131 132 130 131 110 92 110 106 101 98 51 51 107 106 116 97 109 103 113 121 124 126 129 132 134 136 133 134 133 135 133 135 136 147 143 140 127 125 134 137 137 136 134 134 138 139 144 145 143 141 141 141 138 134 132 132 134 138 143 142 144 141 139 134 128 120 113 109 106 100 86 93 83 88 82 45 52 42 101 66 62 58 85 66 49
51 9 340 253 92 119 115 121 84 106 113 114 112 127 125 125 119 96 89 100 76 100 118 100 92 117 97 79 69 99 126 130 138 137 138 134 137 137 133 134 135 135 133 133 135 136 138 141 136 140 142 138 137 138 137 135 137 144 144 141 141 138 134 130 133 135 139 142 149 150 148 152 151 146 141 138 135 128 123 118 115 114 111 108 119 106 52 36 35 14 10 12 22 25 21 11 32
247 105 236 71 88 118 134 121 104 100 116 124 114 135 139 126 124 117 125 124 111 125 117 258 132 118 91 110 107 127 135 139 140 138 138 136 137 135 135 134 134 134 132 130 131 134 137 139 144 146 144 142 142 141 143 142 144 151 149 147 143 137 136 137 138 137 143 148 152 159 157 152 147 143 137 126 124 130 126 124 133 135 149 123 220 260 269 225 47 48 27 7 3 18 36 39 35
299 198 71 151 72 336 113 133 106 118 129 119 142 133 139 140 149 128 124 111 126 140 76 90 136 163 107 110 119 131 141 137 140 143 141 140 135 134 135 132 137 133 135 131 131 134 140 145 149 153 149 150 149 148 149 152 152 149 149 151 149 145 146 148 148 150 150 155 157 161 157 139 142 141 154 134 145 136 162 157 162 185 187 204 248 263 285 38 62 64 73 74 13 27 46 54 83
224 209 298 83 272 109 143 101 136 139 98 100 119 139 127 126 124 129 124 117 116 5 80 109 110 104 104 118 134 146 141 142 144 145 142 137 138 134 136 137 137 136 134 136 141 145 147 151 143 146 153 155 154 153 154 156 153 152 153 152 152 155 152 154 157 157 159 162 163 161 154 150 141 151 181 174 175 182 197 188 197 208 221 235 246 259 301 72 53 94 72 308 353 43 52 46 1
228 147 93 129 99 140 24 155 156 136 109 129 131 134 106 77 131 133 125 117 71 85 120 92 107 248 166 159 154 155 149 145 146 144 140 139 139 134 134 137 141 145 145 139 147 152 150 154 151 150 154 152 158 153 156 161 164 160 159 157 158 159 158 160 163 163 167 167 163 169 160 136 155 146 184 287 12 220 212 216 223 232 248 263 271 277 79 153 149 203 276 287 342 12 9 29 326
195 180 36 126 123 156 127 128 249 137 117 150 137 117 96 109 113 127 60 83 111 107 262 95 305 4 134 138 144 141 145 144 144 143 141 140 141 139 136 141 147 150 148 134 152 160 161 160 153 159 164 160 163 159 162 168 171 171 166 168 165 164 164 165 167 169 172 182 175 141 126 119 156 202 181 226 256 282 261 262 239 245 249 262 265 273 280 145 209 206 228 255 265 264 273 258 286
166 257 187 110 124 163 149 150 167 163 125 137 157 142 130 128 84 67 100 113 118 83 70 24 45 49 122 112 130 135 139 139 144 144 141 143 146 145 144 149 154 157 160 154 163 165 169 167 159 162 189 162 156 150 169 175 170 175 178 175 174 171 173 170 181 179 184 195 183 157 159 167 195 211 202 224 248 253 288 303 282 263 274 270 276 277 283 137 265 224 213 226 232 244 267 269 253
194 195 125 91 92 183 169 172 172 110 141 149 171 158 128 133 132 119 105 87 90 88 73 78 73 80 100 117 123 131 137 143 148 150 148 148 154 153 156 159 168 171 173 171 172 167 170 171 172 160 180 172 137 165 178 173 167 180 183 180 180 182 180 184 192 198 193 217 207 183 189 186 212 208 217 254 252 247 250 271 275 268 270 281 276 279 289 324 266 251 239 233 238 263 270 260 261
221 127 33 111 204 56 156 131 129 137 138 150 144 145 126 115 133 164 137 124 115 93 82 88 94 99 113 124 130 134 140 145 150 153 153 156 160 160 161 161 173 172 177 182 175 171 181 180 180 177 175 171 160 172 177 162 135 96 233 182 177 198 188 189 207 220 213 205 231 208 191 204 205 210 214 230 252 274 268 278 276 266 260 275 284 287 291 266 237 258 240 248 249 239 255 253 239
123 243 108 101 195 96 107 148 154 151 143 138 122 95 101 118 116 166 162 138 151 123 126 111 116 124 129 130 137 140 143 147 154 155 157 161 165 164 164 166 171 178 178 183 181 179 185 180 180 180 177 176 192 181 166 178 166 170 187 196 198 194 175 198 209 218 210 216 223 234 228 207 206 219 209 224 238 243 246 254 265 273 274 268 262 269 238 207 232 237 246 260 276 256 275 266 248
127 218 122 135 165 132 95 240 136 129 133 114 107 113 98 96 102 132 129 145 137 125 149 149 145 139 137 140 141 144 147 150 154 157 158 164 167 169 167 170 176 175 178 178 185 185 184 183 181 183 184 188 195 186 192 197 193 200 204 198 202 204 200 199 210 219 220 209 222 245 249 242 224 230 248 250 253 252 254 259 259 260 260 254 257 267 269 251 226 245 234 247 258 244 241 248 244
92 15 357 126 161 91 74 92 92 102 94 103 118 108 95 124 86 97 88 5 52 11 159 142 144 144 143 144 146 146 149 154 158 163 165 170 172 170 170 174 177 179 176 187 188 184 186 186 185 187 187 195 198 195 197 195 208 217 217 211 212 221 215 212 216 220 226 222 224 228 234 228 232 231 230 246 257 255 254 252 254 249 251 265 254 259 267 267 261 246 233 231 251 276 268 256 236
105 53 62 13 320 120 119 110 104 113 107 102 83 82 113 93 82 36 50 46 37 90 117 130 136 140 141 141 146 149 153 160 165 170 171 173 175 175 174 176 180 183 184 191 185 186 184 189 188 187 189 189 201 203 208 212 214 224 228 221 221 221 226 231 232 234 234 236 235 236 237 238 230 231 232 230 237 242 248 249 246 244 253 258 250 258 267 272 268 259 235 211 220 245 255 255 248
94 116 37 46 87 105 110 107 109 92 90 81 99 111 91 127 91 42 62 70 92 105 117 124 134 138 141 144 150 152 159 164 169 172 175 176 177 178 176 178 183 182 188 189 190 186 185 189 189 192 194 195 196 202 214 217 220 224 226 228 230 238 241 238 241 242 246 243 237 242 250 252 247 238 234 234 234 233 239 243 251 254 242 246 248 263 264 264 268 256 240 223 240 246 248 248 244
100 101 80 91 71 86 105 105 94 93 96 105 92 78 63 60 84 66 57 92 108 112 119 126 135 139 143 146 151 152 158 165 167 169 174 180 182 178 181 184 184 184 192 193 191 191 188 190 188 194 198 202 203 204 213 218 220 225 230 228 234 233 240 245 251 254 246 245 241 243 246 256 259 261 256 249 254 251 253 251 249 249 246 248 253 253 261 268 263 256 242 239 233 232 229 238 244
29 89 93 97 102 111 116 100 99 101 99 101 91 85 87 99 87 61 74 106 116 121 123 133 138 141 145 152 156 160 165 169 168 173 179 180 179 180 188 192 188 198 197 193 194 196 190 189 195 198 202 204 210 211 215 219 224 228 226 232 237 236 239 241 250 258 262 260 254 247 255 266 271 272 269 270 269 269 267 265 264 259 254 248 247 251 249 262 268 260 254 239 225 230 233 235 240
110 92 90 100 106 114 103 112 105 99 100 109 109 95 86 66 267 96 91 120 128 124 128 138 143 144 149 153 161 168 171 173 176 171 178 183 183 192 194 196 198 201 194 199 198 197 190 192 201 203 206 210 212 216 214 219 223 230 231 230 233 234 236 238 240 243 251 254 257 255 251 250 254 256 257 258 247 249 255 260 260 260 257 257 250 253 256 259 264 265 263 264 259 248 248 241 235
110 106 92 81 76 76 96 100 108 120 97 135 103 101 79 63 57 95 130 138 137 131 135 144 147 148 152 157 163 171 179 177 178 181 184 187 191 195 198 200 201 198 199 204 203 195 198 200 203 204 211 213 217 219 220 223 225 227 231 235 233 235 238 238 239 238 240 243 249 253 251 250 249 253 252 251 247 240 243 245 251 253 250 247 245 250 258 263 271 270 263 263 272 274 266 258 249
128 119 97 94 96 101 105 112 115 1 137 206 309 93 47 36 82 121 136 143 142 136 140 147 151 154 156 162 166 176 182 181 186 195 199 197 195 198 203 203 201 197 203 207 208 207 209 209 211 210 214 217 219 223 226 231 231 230 229 229 232 233 232 231 236 239 238 237 238 241 247 253 253 253 253 250 251 251 243 240 243 245 246 238 236 237 251 263 268 271 269 267 261 266 270 266 258
116 76 119 117 119 126 164 9 199 247 118 275 311 101 26 54 113 140 151 150 146 141 146 151 156 161 164 170 176 182 184 188 198 202 201 202 203 202 206 201 203 202 204 210 210 210 211 211 210 216 218 221 223 227 231 238 240 242 245 247 247 244 245 244 244 242 238 231 226 216 226 239 254 264 263 263 261 264 256 249 248 249 248 239 233 229 237 246 249 251 259 260 265 261 258 260 261
134 102 125 142 157 166 179 251 145 219 131 316 253 100 136 118 123 151 161 161 159 154 151 154 159 168 172 179 185 189 191 199 202 202 204 205 208 211 212 209 201 208 219 217 211 211 208 207 205 218 222 226 225 229 234 241 248 251 251 254 257 256 256 249 247 249 252 248 228 221 205 220 229 233 250 265 263 259 265 260 250 248 252 258 254 245 257 260 255 251 247 249 254 255 259 254 250
121 139 147 152 193 157 183 141 206 209 144 342 279 97 132 142 136 160 169 170 171 157 157 158 165 175 180 185 192 197 197 199 209 212 211 210 212 218 216 212 202 206 219 225 219 212 209 209 209 222 225 232 231 234 237 241 249 253 252 250 250 253 261 272 274 264 270 267 254 239 234 237 246 239 240 243 252 258 255 258 260 254 253 254 256 257 253 255 255 260 263 265 266 263 259 261 249
345 212 153 178 217 161 208 200 194 275 287 13 323 142 144 171 149 156 173 176 177 163 161 163 170 180 186 191 196 201 200 204 212 215 215 215 215 222 222 221 213 206 205 215 222 214 208 207 209 220 228 231 237 238 239 246 250 254 254 258 255 244 242 243 238 221 222 229 239 248 236 227 235 234 231 244 252 258 269 278 280 264 239 243 240 244 242 250 257 256 251 254 270 278 274 269 258
177 345 172 169 186 156 196 100 146 103 298 187 12 133 136 99 145 151 166 182 178 178 167 167 170 179 190 196 202 201 205 207 212 215 216 217 224 219 227 224 222 214 206 204 201 208 217 210 208 217 227 232 233 239 241 243 254 266 268 257 250 249 247 245 248 245 238 230 234 244 226 227 235 253 262 280 266 268 311 321 300 297 259 241 238 238 242 243 245 240 244 248 262 280 282 268 267
177 183 170 183 252 193 179 185 154 175 16 123 93 89 125 137 142 157 162 179 189 186 175 175 175 179 187 199 205 210 211 215 217 209 211 213 224 217 221 220 217 211 208 200 196 195 192 205 207 215 222 222 224 233 236 228 235 258 265 261 258 253 252 249 251 257 260 257 248 254 250 232 343 339 312 292 274 311 327 277 276 282 270 231 223 222 224 230 227 211 232 254 255 240 265 273 266
183 172 188 172 185 195 197 149 36 191 135 141 158 148 146 160 159 159 156 170 198 175 160 164 172 177 184 196 203 207 214 222 212 315 219 210 211 203 206 202 201 200 196 190 195 197 200 195 196 203 219 219 229 234 228 235 244 254 249 258 272 255 245 251 248 246 255 259 262 260 249 178 169 198 224 254 253 219 255 265 255 235 226 226 225 222 216 208 206 214 227 246 262 253 264 274 277
104 115 148 192 179 99 80 80 75 16 127 62 354 125 141 155 167 169 161 151 177 183 180 178 177 177 184 186 191 193 197 213 85 150 185 185 186 189 196 189 188 183 188 190 195 205 207 206 195 206 201 213 232 241 226 229 258 264 268 263 264 284 283 278 258 271 259 263 256 227 226 214 204 212 221 242 253 247 245 254 252 248 238 235 235 235 217 211 205 192 181 189 228 259 258 247 261
154 165 191 135 196 157 132 133 352 346 243 108 157 133 138 147 154 174 162 188 201 202 196 186 176 176 175 184 182 183 171 142 169 170 166 169 179 183 189 195 189 189 188 190 203 206 209 209 212 210 209 214 221 257 6 306 268 274 294 299 301 293 280 276 287 308 274 269 260 243 217 247 253 268 259 253 246 227 222 229 246 256 245 241 241 240 233 214 201 183 166 196 199 223 253 238 245
144 189 174 161 151 104 109 93 58 37 215 111 163 147 144 150 168 190 201 196 221 204 217 208 187 175 173 183 181 173 178 174 165 167 167 178 175 186 200 203 209 217 193 199 205 203 204 213 221 209 205 200 123 100 262 274 284 278 268 272 290 302 294 288 294 315 257 246 250 251 240 235 239 222 233 235 238 235 237 241 247 249 250 244 241 233 226 222 211 214 192 196 206 213 234 238 230
157 153 166 208 156 163 168 133 66 43 285 155 173 144 139 142 165 203 218 202 210 213 230 233 215 208 193 187 180 179 179 175 177 177 176 179 183 192 203 210 210 200 202 198 194 194 190 210 222 247 234 154 164 185 200 208 215 241 258 285 292 296 315 324 305 287 282 218 221 231 231 227 214 217 216 222 226 235 235 234 235 237 243 244 236 232 227 222 218 219 211 203 198 212 214 228 217
218 199 186 149 170 197 164 154 121 93 59 129 135 127 172 198 196 208 198 207 213 202 205 212 215 231 259 236 190 195 190 184 172 175 179 178 186 196 202 203 186 199 200 198 174 148 112 95 88 90 91 112 120 63 48 24 21 23 350 251 247 294 285 310 315 336 336 311 279 231 242 228 235 239 237 235 235 238 234 232 232 230 233 233 229 227 224 221 216 219 215 208 206 215 215 222 209
174 232 218 200 173 129 111 130 141 155 120 166 158 150 230 193 214 215 183 191 214 188 211 216 202 203 213 216 206 203 218 212 192 182 187 189 192 193 191 186 192 193 185 82 76 95 96 96 116 118 112 90 64 58 52 41 39 19 9 10 3 358 351 348 350 340 337 337 332 329 298 279 281 270 259 253 244 239 232 232 236 236 231 234 230 231 232 230 226 223 219 214 216 219 223 212 213
179 171 184 180 155 137 139 151 158 174 198 174 268 236 206 151 210 212 205 209 213 184 219 219 202 200 205 212 207 200 200 198 213 209 192 190 193 191 189 189 183 173 108 109 104 100 111 112 108 106 92 91 90 78 70 68 50 44 35 24 2 348 339 339 339 334 331 330 331 327 321 314 304 295 288 269 248 226 221 228 237 242 235 232 235 237 237 234 232 225 218 216 220 218 218 222 214
144 100 149 144 149 152 160 162 176 77 72 85 84 340 259 235 215 207 202 211 217 220 219 218 210 204 205 208 208 205 202 199 196 203 202 201 192 194 186 163 147 110 109 125 111 113 119 120 112 103 101 86 77 77 70 60 57 48 41 24 1 350 346 331 335 333 336 343 339 337 328 317 319 315 307 295 277 230 226 233 237 240 236 226 226 230 234 236 238 236 223 220 220 219 216 219 219
78 66 127 129 139 134 150 149 96 121 159 163 196 163 241 251 138 25 189 212 225 226 222 215 212 208 207 207 209 207 208 201 200 202 202 198 196 188 160 140 108 109 86 96 115 120 120 117 104 94 95 103 103 93 97 92 95 69 49 23 6 2 348 342 338 343 346 350 340 342 337 333 331 330 328 323 313 305 262 244 238 245 243 239 234 237 241 243 244 239 229 224 221 222 223 224 224
28 110 82 78 75 61 62 107 109 111 215 215 195 184 230 248 136 166 181 227 230 227 219 214 207 205 204 206 207 207 206 203 205 212 207 197 183 150 116 99 119 96 95 120 123 124 122 118 120 129 128 133 126 116 105 95 80 68 48 21 10 2 4 353 341 343 349 346 342 337 335 334 336 334 337 339 338 337 319 295 267 252 254 251 245 252 255 256 249 244 239 236 290 267 241 233 231
145 112 98 84 73 79 65 46 65 119 238 245 158 186 222 269 194 191 167 211 214 219 205 203 202 205 205 207 205 202 204 205 203 204 209 193 127 116 128 148 122 116 132 139 127 125 128 137 143 123 122 132 145 131 125 111 95 58 29 12 8 6 6 359 353 343 344 341 340 332 336 331 331 337 339 340 345 354 347 315 282 267 248 251 252 257 259 248 249 242 230 185 225 240 245 231 232
153 123 124 108 76 94 75 68 4 221 232 44 330 203 198 233 235 207 208 84 212 209 203 196 199 200 200 202 205 202 200 203 200 196 200 185 158 162 160 161 155 146 145 139 133 137 146 144 132 122 134 141 135 136 132 108 108 86 45 8 10 10 2 354 346 341 343 339 338 332 336 333 337 335 338 343 345 350 346 332 308 284 268 259 264 267 266 267 262 251 237 220 246 237 239 230 272
135 126 153 141 105 162 164 168 200 209 238 75 336 160 173 236 248 276 189 220 197 211 221 209 199 196 196 198 199 195 197 199 198 195 191 187 187 180 182 173 163 162 162 152 147 149 147 147 141 129 117 95 87 104 92 129 149 138 165 31 24 2 350 341 330 323 331 328 339 337 338 340 339 335 342 341 347 345 341 337 335 316 296 280 283 282 281 280 277 268 253 230 242 244 237 215 224
164 156 142 143 154 177 197 154 349 316 263 104 140 179 259 314 276 258 247 225 217 215 222 225 209 195 190 194 193 192 196 198 198 191 192 189 184 182 180 174 175 168 168 159 158 158 156 158 160 134 129 138 125 107 56 350 351 5 18 9 9 351 330 324 322 326 332 335 339 333 331 335 331 332 331 337 339 340 343 339 334 330 319 308 295 287 284 283 280 274 271 266 262 255 239 235 231
185 7 185 171 165 174 204 175 220 221 84 75 109 170 226 203 170 19 309 24 241 234 232 235 224 205 193 192 188 190 193 195 190 189 193 193 182 181 179 177 177 172 171 167 167 165 166 163 151 145 149 157 146 141 181 219 237 258 355 5 356 343 326 320 334 348 341 338 335 326 324 323 318 322 324 329 332 336 340 337 333 326 323 313 305 303 301 293 283 282 276 270 268 268 268 255 239
80 221 42 176 209 145 266 64 274 124 142 138 167 238 262 230 55 273 296 290 268 246 239 229 222 206 188 185 186 189 193 195 191 191 190 184 177 176 177 179 177 175 174 170 173 171 177 161 161 165 154 152 162 162 184 214 225 249 293 336 347 328 314 322 335 353 347 337 326 315 309 307 310 313 317 320 329 328 330 328 326 323 322 323 318 311 307 301 298 290 286 266 263 254 270 257 253
162 154 202 101 39 111 108 119 58 41 317 216 108 273 239 277 260 242 243 243 248 227 224 221 217 201 188 194 191 191 194 194 188 190 188 179 176 180 182 180 177 176 176 182 181 181 172 165 173 171 164 168 169 184 188 202 216 243 135 346 306 304 320 341 336 333 332 316 296 293 290 302 303 309 313 311 312 315 312 320 321 323 325 325 321 322 315 306 299 292 283 281 274 265 255 257 252
119 211 142 126 279 12 128 194 130 189 249 203 177 241 272 331 239 154 233 240 229 221 210 210 209 197 193 195 190 191 194 194 188 182 178 177 182 181 181 184 182 179 179 184 185 180 174 180 183 175 174 176 180 191 199 204 234 239 244 258 256 269 296 319 319 317 318 307 297 286 293 299 315 315 307 304 303 300 299 302 312 320 326 329 326 321 318 309 304 298 297 292 286 278 276 278 269
274 41 146 184 155 193 30 132 184 201 229 248 193 264 264 226 256 209 235 226 224 205 198 198 202 204 204 195 192 191 193 187 181 186 180 181 183 183 181 186 186 176 181 192 183 176 178 183 187 184 178 187 176 179 201 204 226 255 245 257 264 252 252 283 291 291 290 293 295 290 286 293 294 303 300 301 301 297 298 302 308 318 319 323 322 318 313 310 312 306 302 295 289 285 279 269 261
67 124 121 344 280 89 157 161 42 252 189 251 173 200 270 185 220 221 261 230 203 181 195 208 206 206 202 196 190 188 192 194 185 182 183 181 185 189 186 185 183 181 188 199 186 182 193 186 177 182 179 175 184 208 214 243 198 218 225 238 246 250 261 268 272 272 274 279 288 283 280 279 280 286 285 290 293 293 296 303 305 312 315 309 315 313 313 310 309 309 306 302 296 291 282 277 275
134 171 153 118 58 323 57 75 183 256 183 216 293 256 227 192 204 203 236 222 196 187 197 205 210 210 208 203 192 189 193 191 183 179 177 180 182 184 183 185 182 172 183 196 191 190 193 176 183 192 197 202 213 220 226 241 222 214 239 254 256 247 254 257 258 255 261 270 279 285 282 285 288 274 274 278 278 284 289 291 296 305 303 311 313 313 311 309 310 310 311 305 303 300 292 284 276
168 172 191 161 142 146 195 180 125 264 207 189 202 259 276 210 157 208 229 231 200 203 200 201 207 205 203 203 203 197 194 189 178 179 179 181 178 174 172 172 168 176 195 200 191 184 189 191 193 199 213 220 229 224 226 240 228 244 252 259 264 265 271 269 268 264 262 270 280 287 288 284 279 280 274 277 278 279 282 285 292 300 304 307 307 306 310 317 318 319 315 311 306 304 301 295 292